STARLINK-1465, 45731

Orbit data source: Space-Track

STARLINK-1465, 45731 is a payload satellite owned by SpaceX/Seattle (US) in LEO that was launched on Sat, 13 Jun 2020 UTC via an FALCON 9 launch vehicle from the Air Force Eastern Test Range (AFETR). Payload-class satellites include a variety of spacecraft equipped with specific instruments for various scientific and technological missions. These include communications satellites like Starlink; space stations such as the ISS; scientific satellites like the Hubble; Earth observation satellites from companies like Planet Labs, Umbra, and HawkEye 360; GPS; miniature CubeSats for education and research; and military/defense satellites.

Loading next visibility...
Identifier
45731, 2020-038B
Orbit
LEO
Country
Flag of USUS
Related business
Manufacturer
SpaceX/Seattle
Mission
Operational Commercial Communications
Bus & Motor
STARLINK, Unknown motor
Mass
260 kg wet, ~248 kg dry
Launch date (UTC)
2020-06-13 (5 years ago)
Launch vehicle
FALCON 9
Launch site
Air Force Eastern Test Range (AFETR)
Object type
Payload
Rocket body
Debris
Shape & HBR
Box + 1 Pan, 10.1 m
Radar Cross Section
13.562 m², Large (>1 m²)

Expand to show TLE details & history
Last TLE update: 1 day ago

TLE from 1 day ago
0 STARLINK-1465
1 45731U 20038B   25290.93654488  .00005053  00000-0  35774-3 0  9990
2 45731  53.0533 157.4630 0001720  80.6420 279.4763 15.06413194294677
Epoch: 2025-10-17T22:28Z
TLE epoch observation values (Epoch: 2025-10-17T22:28:37.477Z)
Latitude
-0.00006°
Longitude
153.63204°
Altitude
547.854 km
Speed
7.589 km/s
True Right ascension
10h 29m 51s
True Declination
0° 00' 00"
Sunlit
Object was in daylight at epoch
Visualization orbit readout
Latitude
Unknown
Longitude
Unknown
Altitude
Unknown
Speed
Unknown
Apparent Right ascension
Unknown
Apparent Declination
Unknown
Sunlit
N/A
Visualization observer readout
Local Sidereal Time
21:17:30
Azimuth
Unknown
Elevation
Unknown
Doppler factor
Unknown
Orbital elements
Apogee altitude
548.633 km
Perigee altitude
546.251 km
Semi-major axis
6,925.579 km
Eccentricity
0.00017
Inclination
53.0533°
RAAN
157.463°
Arg. of periapsis
80.642°
True anomaly
279.45686°
Mean anomaly
279.4763°
Eccentric anomaly
279.46658°
Mean motion
3.76582 °/min
Orbital period
95.6 mins
BSTAR
0.00035774
Loading maneuver chart data...
Computing Atmospheric mass density...

Documentation

Showing up to 5 results
|